TimeEST,TemperatureF,Dew PointF,Humidity,Sea Level PressureIn,VisibilityMPH,Wind Direction,Wind SpeedMPH,Gust SpeedMPH,PrecipitationIn,Events,Conditions,WindDirDegrees,DateUTC
12:52 AM,50.0,46.9,89,29.96,5.0,Calm,Calm,-,0.00,Rain,Light Rain,0,2012-12-08 05:52:00
1:52 AM,50.0,46.9,89,29.96,9.0,Calm,Calm,-,0.03,,Overcast,0,2012-12-08 06:52:00
2:36 AM,50.0,48.2,94,29.95,10.0,Calm,Calm,-,N/A,,Overcast,0,2012-12-08 07:36:00
2:52 AM,50.0,48.0,93,29.94,8.0,Calm,Calm,-,N/A,,Overcast,0,2012-12-08 07:52:00
3:47 AM,50.0,48.2,94,29.93,6.0,Calm,Calm,-,N/A,,Overcast,0,2012-12-08 08:47:00
3:52 AM,50.0,48.0,93,29.93,6.0,Calm,Calm,-,N/A,,Overcast,0,2012-12-08 08:52:00
4:22 AM,50.0,48.2,94,29.92,6.0,Calm,Calm,-,N/A,,Overcast,0,2012-12-08 09:22:00
4:30 AM,50.0,48.2,94,29.92,5.0,Calm,Calm,-,N/A,,Overcast,0,2012-12-08 09:30:00
4:40 AM,50.0,48.2,94,29.92,5.0,Calm,Calm,-,N/A,,Overcast,0,2012-12-08 09:40:00
4:52 AM,50.0,48.0,93,29.92,5.0,Calm,Calm,-,N/A,,Overcast,0,2012-12-08 09:52:00
5:00 AM,50.0,48.2,94,29.92,5.0,Calm,Calm,-,N/A,,Overcast,0,2012-12-08 10:00:00
5:52 AM,51.1,48.9,92,29.92,6.0,South,3.5,-,N/A,,Overcast,170,2012-12-08 10:52:00
6:16 AM,51.8,48.2,88,29.92,5.0,Calm,Calm,-,N/A,,Overcast,0,2012-12-08 11:16:00
6:52 AM,51.1,48.9,92,29.94,2.0,Calm,Calm,-,N/A,,Overcast,0,2012-12-08 11:52:00
7:23 AM,50.0,48.2,94,29.93,0.8,Calm,Calm,-,N/A,,Overcast,0,2012-12-08 12:23:00
7:52 AM,51.1,48.9,92,29.94,0.8,Calm,Calm,-,0.01,,Mist,0,2012-12-08 12:52:00
8:36 AM,51.8,48.2,88,29.95,1.0,WSW,5.8,-,N/A,,Overcast,250,2012-12-08 13:36:00
8:52 AM,51.1,50.0,96,29.95,1.2,WSW,6.9,-,N/A,,Overcast,250,2012-12-08 13:52:00
9:32 AM,51.8,50.0,94,29.96,5.0,WSW,5.8,-,N/A,,Overcast,240,2012-12-08 14:32:00
9:52 AM,51.1,48.9,92,29.97,5.0,West,6.9,-,N/A,,Overcast,270,2012-12-08 14:52:00
10:52 AM,52.0,50.0,93,29.96,7.0,SSW,6.9,-,N/A,,Overcast,210,2012-12-08 15:52:00
11:52 AM,52.0,50.0,93,29.94,9.0,SW,6.9,-,N/A,,Overcast,230,2012-12-08 16:52:00
12:52 PM,53.1,50.0,89,29.93,9.0,SSW,6.9,-,N/A,,Overcast,200,2012-12-08 17:52:00
1:52 PM,54.0,50.0,86,29.92,10.0,SW,5.8,-,N/A,,Overcast,220,2012-12-08 18:52:00
2:52 PM,54.0,50.0,86,29.93,10.0,SW,4.6,-,N/A,,Overcast,230,2012-12-08 19:52:00
3:52 PM,54.0,50.0,86,29.93,10.0,Calm,Calm,-,N/A,,Overcast,0,2012-12-08 20:52:00
4:52 PM,51.1,48.9,92,29.95,6.0,SE,5.8,-,N/A,,Mostly Cloudy,130,2012-12-08 21:52:00
5:52 PM,50.0,48.0,93,29.96,5.0,ESE,4.6,-,N/A,,Scattered Clouds,120,2012-12-08 22:52:00
6:18 PM,50.0,46.4,87,29.96,1.8,ESE,5.8,-,N/A,,Mostly Cloudy,110,2012-12-08 23:18:00
6:20 PM,48.2,46.4,93,29.96,1.0,ESE,5.8,-,N/A,,Mist,120,2012-12-08 23:20:00
6:22 PM,48.2,46.4,93,29.96,0.5,ESE,5.8,-,N/A,Fog,Fog,120,2012-12-08 23:22:00
6:32 PM,48.2,48.2,100,29.96,0.2,SE,6.9,-,N/A,Fog,Fog,130,2012-12-08 23:32:00
6:45 PM,48.2,48.2,100,29.95,0.5,ESE,5.8,-,N/A,Fog,Fog,120,2012-12-08 23:45:00
6:52 PM,48.9,48.0,97,29.96,0.5,SE,4.6,-,N/A,Fog,Fog,130,2012-12-08 23:52:00
7:02 PM,48.2,48.2,100,29.97,0.5,ESE,4.6,-,N/A,Fog,Fog,110,2012-12-09 00:02:00
7:52 PM,50.0,48.0,93,29.98,0.5,SE,5.8,-,N/A,Fog,Fog,130,2012-12-09 00:52:00
8:00 PM,50.0,48.2,94,29.97,1.0,ESE,5.8,-,N/A,,Mist,120,2012-12-09 01:00:00
8:15 PM,48.2,48.2,100,29.98,0.5,Calm,Calm,-,N/A,Fog,Fog,0,2012-12-09 01:15:00
8:22 PM,48.2,46.4,93,29.98,0.2,Calm,Calm,-,N/A,Fog,Fog,0,2012-12-09 01:22:00
8:52 PM,48.0,46.0,93,29.99,0.2,Calm,Calm,-,N/A,Fog,Fog,0,2012-12-09 01:52:00
9:23 PM,46.4,44.6,93,29.99,0.5,Calm,Calm,-,N/A,Fog,Fog,0,2012-12-09 02:23:00
9:32 PM,46.4,44.6,93,29.99,0.2,Calm,Calm,-,N/A,Fog,Fog,0,2012-12-09 02:32:00
9:42 PM,46.4,44.6,93,29.99,0.2,Calm,Calm,-,N/A,Fog,Fog,0,2012-12-09 02:42:00
9:52 PM,46.0,44.1,93,30.00,0.5,Calm,Calm,-,N/A,Fog,Fog,0,2012-12-09 02:52:00
10:02 PM,46.4,42.8,87,30.00,0.2,Calm,Calm,-,N/A,Fog,Fog,0,2012-12-09 03:02:00
10:17 PM,46.4,44.6,93,29.99,0.5,Calm,Calm,-,N/A,Fog,Fog,0,2012-12-09 03:17:00
10:27 PM,44.6,42.8,93,29.99,0.5,Calm,Calm,-,N/A,Fog,Fog,0,2012-12-09 03:27:00
10:34 PM,44.6,42.8,93,29.99,0.5,Calm,Calm,-,N/A,Fog,Fog,0,2012-12-09 03:34:00
10:52 PM,44.1,43.0,96,30.00,0.8,Calm,Calm,-,N/A,,Mist,0,2012-12-09 03:52:00
11:20 PM,44.6,42.8,93,30.00,1.2,Calm,Calm,-,N/A,,Scattered Clouds,0,2012-12-09 04:20:00
11:23 PM,44.6,42.8,93,30.00,2.0,Calm,Calm,-,N/A,,Scattered Clouds,0,2012-12-09 04:23:00
11:31 PM,44.6,42.8,93,30.01,6.0,Calm,Calm,-,N/A,,Partly Cloudy,0,2012-12-09 04:31:00
11:52 PM,44.1,42.1,93,30.01,5.0,Calm,Calm,-,N/A,,Clear,0,2012-12-09 04:52:00